SCP
0 0 0 0 0 0 0 0 0 0 0 0 0 -0 -0 0 0 0 0 0 0 0 -0 0 0 0 0 0 0 0 0 0 0 0 0 0 0 0 0 0 0 0 0 0 0 0 0 0 0 0 0 0 0 0
0 0 0 0 0 0 0 0 0 0 -0 0 -0 -0 -0 0 0 0 0 0 0 0 0 0 0 0 0 0 0 0 0 0 0 0 0 0 0 0 0 0 0 0 0 0 0 0 0 0 0 0 0 0 0 0
0 0 0 0 0 0 0 0 -0 0 0 0 -0 -0 -0 -0 0 0 0 0 0 0 0 0 0 0 0 0 0 0 0 0 0 0 0 0 0 0 0 0 0 0 0 0 0 0 0 0 0 0 0 0 0 0
0 0 0 0 0 0 0 0 -0 0 0 0 0 0 -0 0 0 0 0 0 0 0 0 0 0 0 0 0 0 0 0 0 0 0 0 0 0 0 0 0 0 0 0 0 0 0 0 0 0 0 0 0 0 0
0 0 0 0 0 0 0 0 -0 -0 0 -0 0 0 -0 0 0 0 0 0 0 0 0 0 0 0 0 0 0 0 0 0 0 0 0 0 0 0 0 0 0 0 0 0 0 0 0 0 0 0 0 0 0 0
0 0 0 0 0 0 0 0 0 0 0 0 0 0 0 0 0 0 0 0 0 0 0 0 0 0 0 0 0 0 0 0 0 0 0 0 0 0 0 0 0 0 0 0 0 0 0 0 0 0 0 0 0 0
0 0 0 0 0 0 -0 -0 -0 0 0 0 0 0 0 0 0 0 0 0 0 0 0 0 0 0 0 0 0 0 0 0 0 0 0 0 0 0 0 0 0 0 0 0 0 0 0 0 0 0 0 0 0 0
0 0 0 0 0 0 -0 -0 -0 0 0 0 0 0 0 0 0 0 0 -0 0 0 0 0 0 0 0 0 0 0 0 0 0 0 0 0 0 0 0 0 0 0 0 0 0 0 0 0 0 0 0 0 0 0
0 0 0 0 0 -0 -0 -0 -0 -0 -0 -0 0 0 0 0 0 0 0 0 0 0 0 0 0 0 0 0 0 0 0 0 0 0 0 0 0 0 0 0 0 0 0 0 0 0 0 0 0 0 0 0 0 0
0 0 0 0 -0 -0 -0 -0 -0 0 -0 -0 0 0 0 0 0 0 0 0 0 0 0 0 0 0 0 0 0 0 0 0 0 0 0 0 0 0 0 0 0 0 0 0 0 0 0 0 0 0 0 0 0 0
-0 -0 -0 -0 -0 -0 -0 -0 -0 -0 -0 0 0 0 0 0 0 0 0 0 0 0 0 0 0 0 0 0 0 0 0 0 0 0 0 0 0 0 0 0 0 0 0 0 0 0 0 0 0 0 0 0 0 0
-0 -0 -0 -0 -0 -0 -0 0 -0 -0 0 0 0 0 0 0 0 0 0 0 0 0 0 0 0 0 0 0 0 0 0 0 0 0 0 0 0 0 0 0 0 0 0 0 -0 -0 0 0 0 0 0 -0 -0 -0
-0 -0 -0 -0 -0 -0 -0 -0 -0 -0 0 0 0 0 0 0 0 0 0 0 0 0 0 0 0 0 0 0 0 0 0 0 0 0 0 -0 0 -0 -0 -0 0 0 0 0 0 0 0 0 0 0 0 0 0 0
-0 -0 -0 -0 -0 0 0 -0 0 0 0 0 0 0 0 0 0 0 0 0 0 0 -0 0 0 0 0 0 0 0 0 0 0 0 0 0 -0 -0 -0 0 0 0 0 0 0 0 0 0 0 0 0 0 0 -0
-0 -0 -0 -0 0 0 0 0 0 0 0 0 0 0 0 0 0 0 0 0 0 -0 -0 -0 0 0 0 0 0 0 0 0 0 0 0 0 -0 -0 -0 -0 0 0 0 0 0 0 0 0 0 0 0 0 -0 0
-0 -0 0 -0 0 0 0 0 0 0 0 0 0 0 0 0 0 0 0 0 0 0 0 -0 -0 0 0 0 0 0 0 0 0 0 0 -0 -0 -0 -0 -0 -0 0 0 0 0 0 0 0 0 0 0 0 0 0
-0 0 -0 -0 -0 0 0 0 0 0 0 0 0 0 0 0 0 0 0 0 -0 0 0 -0 -0 0 -0 0 0 0 0 0 0 0 0 -0 -0 -0 -0 -0 -0 -0 0 0 0 0 0 0 0 0 0 0 0 0
0 -0 -0 -0 -0 0 0 0 0 0 0 0 0 0 0 0 0 0 0 0 0 0 -0 -0 -0 0 0 0 0 0 0 0 0 0 -0 -0 0 0 0 -0 -0 0 0 0 0 0 0 0 0 0 0 0 0 0
-0 -0 -0 -0 -0 0 0 0 0 0 0 0 0 0 0 0 0 0 0 0 0 0 -0 -0 0 -0 0 0 -0 0 0 0 0 0 0 0 0 0 0 -0 -0 0 0 0 0 0 0 0 -0 -0 -0 0 0 0
-0 -0 -0 -0 0 0 0 0 0 0 0 0 0 0 0 0 0 0 0 0 0 -0 -0 -0 0 0 -0 -0 -0 0 0 -0 -0 -0 0 0 0 0 0 0 0 0 0 0 0 0 -0 -0 -0 -0 -0 -0 -0 0
-0 0 0 0 0 0 0 0 0 0 0 0 0 0 0 0 0 -0 -0 -0 0 -0 0 0 0 0 0 0 0 -0 0 -0 -0 0 0 0 0 0 0 0 0 0 0 0 -0 0 -0 -0 -0 -0 -0 0 0 0
0 -0 0 0 0 0 0 0 0 0 0 0 0 0 0 0 0 -0 0 0 -0 -0 -0 0 0 -0 0 0 -0 0 -0 -0 -0 0 0 0 0 0 0 0 0 0 -0 -0 -0 -0 -0 0 -0 0 0 0 0 0
-0 0 0 0 0 0 0 0 0 0 0 0 0 0 0 0 0 0 -0 -0 -0 0 -0 0 0 0 0 0 0 -0 -0 -0 0 0 0 0 0 0 0 -0 0 -0 -0 -0 -0 -0 0 0 -0 0 0 0 0 0
0 0 0 0 0 0 0 0 0 0 0 0 0 0 0 0 -0 0 0 -0 -0 -0 -0 -0 0 0 0 0 0 0 0 -0 0 0 0 0 0 -0 -0 0 -0 -0 -0 -0 -0 0 0 0 0 0 0 0 0 0
0 0 0 0 0 0 0 0 0 0 0 0 0 0 -0 -0 -0 -0 -0 -0 -0 -0 -0 -0 0 0 0 0 0 0 0 -0 0 0 0 0 0 0 0 0 0 0 0 -0 0 0 0 0 0 0 0 0 0 0
0 0 0 0 0 0 0 0 0 0 0 0 0 0 0 -0 -0 0 0 -0 -0 -0 0 -0 0 0 -0 -0 0 0 -0 0 0 0 -0 -0 0 0 0 0 0 0 0 0 -0 -0 0 0 0 0 0 0 0 0
0 0 0 -0 0 0 0 0 0 0 0 0 0 0 0 0 -0 -0 0 -0 -0 -0 -0 0 0 -0 -0 0 0 0 0 0 0 0 0 0 0 0 0 0 0 0 0 -0 0 0 0 0 0 0 0 0 0 0
0 0 0 0 0 0 0 0 0 0 0 0 0 0 0 -0 -0 -0 -0 -0 0 0 0 0 0 0 -0 0 -0 -0 -0 0 -0 0 0 0 0 0 0 0 0 -0 0 0 0 0 0 0 0 0 0 0 0 0
0 0 0 0 0 0 0 0 0 0 -0 0 0 0 -0 -0 -0 -0 -0 0 0 0 0 0 0 0 0 0 0 -0 -0 -0 -0 -0 0 0 0 0 0 0 0 0 0 0 0 0 0 0 0 0 0 0 0 0
0 -0 0 0 0 0 0 0 -0 -0 -0 -0 -0 -0 -0 -0 -0 -0 -0 0 0 0 0 0 0 0 0 0 0 0 0 0 0 0 -0 0 0 0 0 0 0 0 0 0 0 0 0 0 0 0 0 0 0 0
0 0 0 0 0 0 0 0 0 0 0 0 0 0 -0 -0 -0 -0 0 0 0 0 0 0 0 0 0 0 0 0 0 0 0 0 0 -0 -0 -0 0 0 0 0 0 0 0 0 0 0 0 0 0 0 0 0
0 0 0 -0 -0 0 0 0 0 0 0 0 -0 -0 -0 0 -0 -0 0 0 0 0 0 0 0 0 0 0 0 0 0 0 0 0 -0 -0 -0 -0 0 0 0 0 0 0 0 0 0 0 0 0 0 0 0 0
0 0 0 0 0 0 0 0 0 -0 -0 -0 -0 -0 0 -0 -0 0 0 0 0 0 0 0 0 0 0 0 0 0 0 0 0 0 -0 -0 -0 -0 0 0 0 0 0 0 0 0 0 0 0 0 0 0 0 0
Wind_Speed_500mb
51 44 38 45 43 37 38 40 40 41 42 41 30 27 24 20 17 16 22 16 25 11 21 12 11 10 7 2 3 3 3 3 5 4 5 1 2 4 3 3 9 8 11 8 9 9 12 4 4 7 5 16 22 14
54 49 38 45 48 45 42 38 38 38 38 40 37 33 26 23 19 17 23 22 19 28 15 17 16 11 14 12 5 5 3 4 6 5 0 3 1 2 2 1 4 7 8 7 11 8 4 4 6 21 17 22 15 16
55 53 47 43 45 51 51 44 40 34 36 34 37 34 31 23 17 17 23 19 10 11 21 37 22 12 11 15 32 6 4 7 6 8 4 2 1 0 2 4 1 8 4 3 4 5 6 13 19 14 9 13 16 14
56 56 54 43 40 47 52 47 48 36 38 34 36 31 27 25 21 21 19 16 17 6 5 3 0 5 0 4 18 24 6 12 16 10 6 2 1 6 4 4 3 7 8 10 4 5 6 7 19 17 25 22 19 13
57 60 50 42 47 49 49 48 48 43 36 35 31 31 21 21 21 18 14 14 10 6 2 11 9 11 6 4 16 18 16 19 10 6 3 5 5 2 5 1 7 9 9 6 9 22 14 11 24 30 29 23 16 12
61 56 47 48 50 45 44 50 49 40 38 36 28 28 22 21 18 11 7 12 25 20 3 2 3 6 12 18 19 18 18 15 7 6 2 5 4 5 3 6 12 20 23 25 9 21 16 21 33 32 25 20 17 13
54 48 48 52 48 45 51 54 47 38 32 28 26 24 21 18 22 7 4 6 9 23 3 3 3 5 21 20 16 13 10 7 6 5 5 4 5 13 4 5 10 6 7 13 21 40 22 32 25 28 19 18 17 15
46 46 51 49 48 47 51 47 30 21 24 21 24 18 15 15 22 15 17 17 5 12 6 2 4 6 20 7 7 8 7 7 8 8 6 5 7 8 8 27 35 9 3 16 35 23 27 32 37 25 17 20 21 20
42 48 49 53 57 52 46 37 31 24 25 16 18 19 13 9 10 7 6 4 17 6 5 3 4 5 15 7 7 5 6 3 5 4 5 8 5 9 13 15 23 29 12 22 29 27 40 41 30 22 24 23 21 19
48 50 54 57 52 45 37 35 28 24 20 15 8 5 5 9 10 20 10 13 6 8 5 2 3 4 8 5 5 8 4 2 3 6 7 6 8 39 31 17 11 23 32 36 49 37 40 35 29 30 26 23 18 13
54 53 56 49 41 32 32 28 26 24 16 7 6 4 5 31 19 5 5 4 5 2 7 6 12 5 6 4 3 3 3 2 4 4 5 4 7 9 33 29 20 31 40 30 29 29 32 30 37 37 28 21 18 16
52 53 49 43 34 32 31 19 14 12 5 6 6 10 13 4 4 3 3 4 4 5 9 10 9 5 8 5 4 4 2 4 6 12 5 6 7 8 26 44 36 37 30 27 25 38 35 35 39 35 31 28 24 22
52 49 47 40 36 21 13 10 9 8 6 4 4 5 5 2 3 6 9 4 4 10 16 12 6 7 6 4 3 4 5 5 4 6 5 7 4 29 44 43 34 37 33 38 39 38 39 39 32 28 28 23 19 17
52 48 33 29 21 11 8 8 4 9 4 2 2 4 3 4 5 6 4 4 4 7 31 29 8 5 6 4 2 5 5 3 6 6 9 4 23 40 49 44 43 47 40 45 42 41 40 36 31 25 20 18 13 11
41 27 42 20 16 5 3 9 4 12 6 3 1 3 7 7 9 4 7 10 7 28 34 17 9 6 2 4 4 2 5 7 8 5 3 20 43 47 47 52 50 52 49 46 43 41 37 33 29 26 20 17 12 10
27 26 34 27 15 0 9 19 13 8 6 4 4 5 7 8 4 6 10 11 21 31 19 10 4 4 5 5 8 11 6 7 5 2 14 46 56 55 56 42 53 48 46 44 39 36 34 30 26 24 22 18 16 6
18 18 32 21 16 10 7 9 2 3 5 6 4 12 14 9 10 5 6 15 27 20 3 4 7 8 5 6 8 7 6 4 5 12 37 58 56 59 47 51 49 47 44 40 36 31 32 29 24 22 21 20 11 11
20 14 15 6 2 7 1 1 5 4 5 7 6 11 7 11 7 3 5 23 21 12 10 3 2 4 5 5 4 3 6 5 15 31 44 55 52 47 44 45 41 45 42 37 30 28 27 28 23 16 17 17 12 13
23 7 4 5 5 6 8 5 3 5 6 12 14 12 6 6 4 4 6 20 7 8 3 4 5 4 4 3 6 11 13 18 36 40 42 43 53 52 45 35 37 46 41 36 30 24 21 20 16 14 14 14 11 13
12 4 5 5 4 4 5 4 5 5 6 8 12 12 9 5 4 8 12 17 8 5 5 4 5 4 7 23 19 6 27 40 46 46 43 42 49 39 37 44 46 43 40 35 28 23 25 26 19 14 11 9 6 9
3 4 2 4 4 6 5 5 5 6 9 9 15 11 2 1 3 6 8 14 7 5 5 14 17 8 15 6 1 19 45 39 50 58 59 45 38 41 42 41 40 38 36 31 26 23 18 15 16 14 13 11 6 8
4 7 2 7 4 4 7 7 7 10 6 8 11 6 5 2 4 5 8 11 7 12 11 8 6 6 6 11 9 23 38 42 38 41 43 41 51 49 44 41 37 33 29 25 18 22 20 16 12 13 10 11 6 6
4 2 3 5 5 5 8 6 6 4 3 4 5 4 3 2 2 6 4 7 10 13 14 12 6 12 5 8 12 26 37 39 34 38 40 44 45 41 35 33 30 32 33 27 21 17 16 15 12 9 9 7 3 3
4 3 4 5 8 5 6 5 4 5 6 3 2 4 5 5 5 2 5 6 9 14 13 12 12 13 11 16 28 28 31 32 40 39 40 40 39 35 31 30 28 29 25 25 24 19 15 12 11 10 7 3 1 4
4 5 5 6 6 6 4 2 2 1 4 1 3 4 5 7 1 3 4 7 13 14 5 12 13 9 17 27 31 31 31 32 39 38 39 39 37 32 31 34 37 30 25 24 27 23 17 14 12 11 8 3 2 4
5 5 8 5 4 4 2 2 3 4 4 4 4 3 5 1 3 3 3 9 14 10 7 15 10 3 15 25 37 39 37 33 31 37 37 35 32 30 29 34 33 37 33 25 13 20 18 16 14 11 7 3 2 6
5 7 9 10 6 3 3 7 8 4 6 4 1 2 1 2 5 3 5 10 13 5 10 11 5 6 13 21 34 43 38 37 36 35 33 29 26 27 20 25 30 22 31 27 18 9 8 13 13 9 5 4 4 6
9 7 5 3 5 8 4 2 5 2 4 9 8 0 4 2 4 7 6 5 7 5 17 28 20 8 16 23 32 33 34 38 37 34 28 29 28 23 18 15 18 16 20 18 12 8 6 5 7 7 5 4 5 5
8 9 7 7 10 7 6 2 5 4 3 4 2 1 4 4 11 13 9 6 5 7 14 16 17 12 26 34 35 34 32 34 37 39 40 41 36 30 27 24 23 22 19 18 17 10 7 7 6 4 4 4 4 7
10 14 7 7 5 5 5 2 7 7 5 6 5 5 8 14 16 11 12 10 8 7 10 15 26 32 28 42 39 40 38 37 30 17 31 37 36 33 33 31 27 19 16 17 18 20 18 12 8 5 4 4 6 8
9 7 6 5 3 4 7 8 8 10 11 10 14 16 14 9 10 10 14 13 12 12 15 16 27 31 27 45 46 47 40 28 24 16 12 13 26 30 33 29 21 15 15 16 16 16 14 10 6 3 5 6 7 7
6 7 6 4 5 4 5 5 5 6 6 6 6 5 11 8 7 7 10 15 15 17 20 26 26 27 40 49 39 35 27 28 21 19 11 13 21 27 28 24 20 19 18 19 17 15 12 6 4 5 6 6 7 7
3 4 5 3 4 4 4 4 5 7 5 6 8 8 7 5 7 5 7 8 13 14 10 9 21 27 39 45 43 37 26 19 22 20 22 22 22 22 24 24 23 20 18 15 13 11 8 5 5 6 6 7 7 7
Wind_Direction_500mb
321 319 315 316 317 314 310 316 322 329 330 324 300 306 301 295 304 283 278 269 252 250 281 260 244 262 262 249 141 172 89 352 57 125 205 156 170 355 354 79 155 160 168 173 201 202 247 116 113 172 192 128 154 140
326 321 312 315 317 315 307 306 308 316 322 322 310 296 289 294 282 297 276 271 250 240 260 285 286 239 247 260 214 176 141 117 154 95 226 94 180 319 1 201 91 198 182 176 184 211 242 31 120 125 129 136 151 146
323 322 312 305 316 317 309 301 299 302 312 318 311 303 299 288 285 283 292 280 245 271 269 261 282 240 239 242 221 180 181 157 144 107 120 119 24 17 225 237 268 217 244 238 118 168 130 108 88 97 129 149 134 123
322 318 318 308 311 314 316 308 294 292 303 314 309 301 296 285 270 271 274 294 203 269 271 266 117 115 170 285 195 195 181 163 134 101 80 84 242 185 269 262 288 218 172 182 141 124 147 200 172 188 172 147 136 123
325 322 317 316 315 316 315 313 300 287 284 302 303 298 292 278 273 281 264 267 258 226 273 306 312 357 216 112 153 192 186 150 123 101 118 194 240 197 301 16 237 196 188 157 218 205 170 186 188 179 160 149 142 134
321 318 318 317 316 316 312 314 310 292 274 287 295 293 274 278 260 232 268 238 228 211 288 288 334 338 156 163 153 152 152 155 128 128 184 249 246 131 254 259 253 232 235 238 229 188 143 147 159 165 157 154 155 135
321 322 322 316 316 308 313 309 307 288 272 285 296 282 271 266 247 245 236 353 214 196 223 282 304 179 174 151 146 153 159 135 125 129 200 242 268 178 243 245 268 259 254 234 219 160 120 150 152 154 151 152 158 141
318 320 317 320 318 315 308 317 314 287 293 284 290 279 269 267 258 251 239 273 270 169 183 226 264 176 174 131 113 140 125 189 200 192 168 229 182 208 249 236 242 224 194 159 161 176 176 156 146 144 152 154 147 143
318 317 319 317 316 309 308 313 320 276 290 288 287 273 268 220 208 197 235 275 204 186 199 211 199 205 165 100 107 111 135 159 193 219 233 178 221 223 226 226 234 228 200 162 162 163 152 147 142 146 151 152 144 133
317 318 318 317 315 312 308 308 327 291 291 291 260 197 207 170 174 164 128 169 189 213 215 249 197 143 163 123 132 141 124 211 229 217 192 208 251 241 244 251 238 202 188 167 137 135 147 144 146 146 145 141 137 129
326 322 319 319 316 312 315 305 294 274 282 205 203 223 156 155 151 130 111 167 167 236 211 197 197 139 110 127 122 210 140 265 244 185 217 241 262 250 229 194 155 160 161 166 185 171 164 155 149 146 139 131 120 110
326 325 325 321 311 309 313 304 256 294 222 170 169 125 145 157 101 151 173 163 209 233 182 158 178 111 116 116 103 156 245 185 261 148 220 248 254 295 168 168 157 156 162 190 179 152 148 145 143 134 126 122 111 101
328 325 324 320 315 318 321 284 287 198 203 186 186 128 137 140 191 210 184 166 222 182 166 151 118 132 121 119 113 182 228 252 3 217 240 229 191 150 147 142 137 144 172 154 148 145 144 143 143 137 132 128 119 101
331 333 339 324 323 325 288 262 203 151 152 266 159 118 232 185 237 223 188 200 193 159 150 132 111 120 109 128 136 231 218 285 249 232 228 196 153 147 147 145 159 154 153 145 145 146 143 140 140 149 149 144 145 109
338 3 19 6 347 6 118 182 188 187 326 326 256 226 217 251 264 266 298 147 102 149 142 108 89 101 121 176 199 285 243 236 238 241 188 149 147 146 148 153 154 152 147 144 146 144 139 137 134 130 136 162 172 148
351 11 27 19 359 54 130 132 171 232 305 292 277 292 294 263 291 205 169 130 145 146 120 109 122 173 181 204 205 213 230 239 272 248 160 148 146 151 151 161 157 153 150 147 148 146 145 143 139 129 125 140 150 121
342 347 15 41 26 65 168 128 85 310 298 293 288 288 287 275 237 351 152 155 160 144 138 140 194 211 148 213 213 213 226 250 222 167 159 159 157 156 160 157 156 155 151 148 146 145 154 157 152 140 131 139 130 76
311 321 2 39 46 338 305 322 358 316 281 272 285 303 266 296 293 271 184 169 164 168 156 236 287 211 236 240 223 293 336 65 138 153 150 145 157 152 158 146 156 158 153 150 145 141 146 164 165 146 135 142 120 74
309 278 318 350 330 320 342 337 358 306 283 300 290 307 311 319 253 259 166 160 168 166 192 242 251 242 251 1 272 311 168 140 129 131 147 166 156 158 153 164 163 156 154 151 146 139 135 153 153 139 138 150 122 80
329 289 232 279 269 335 320 301 308 287 280 304 303 323 313 318 163 160 163 174 187 184 224 242 237 283 290 285 287 239 153 141 132 125 137 161 157 149 163 157 156 155 154 154 154 151 149 153 152 149 141 145 109 81
45 33 259 242 289 275 278 292 284 265 290 292 302 324 323 183 183 187 187 191 215 233 234 246 259 297 330 321 153 167 160 163 156 150 148 148 166 169 158 158 157 159 162 165 164 161 163 158 152 156 161 154 120 75
55 40 207 224 299 268 275 252 252 295 264 278 308 304 278 273 238 218 180 195 242 240 234 272 289 263 204 66 140 176 178 173 165 164 163 165 162 161 163 164 166 168 169 169 172 172 167 156 150 159 169 153 132 78
56 233 251 207 270 256 271 242 258 245 258 299 309 307 291 291 357 150 261 238 259 270 262 251 240 151 210 347 148 165 175 177 170 165 169 168 165 164 164 169 178 180 173 170 172 168 161 150 153 166 161 145 112 37
206 261 244 233 219 272 270 246 250 280 288 260 276 294 338 6 157 252 262 255 270 293 273 233 215 183 195 173 160 163 168 169 163 162 165 164 163 164 169 174 181 185 183 173 171 178 169 154 160 170 163 168 176 336
276 228 235 261 231 249 266 230 325 337 259 226 266 225 183 190 210 242 238 278 334 327 286 191 180 186 186 167 164 164 167 172 168 164 162 167 168 174 179 184 187 203 204 189 182 187 178 173 171 173 168 165 14 0
266 222 202 239 239 210 241 245 230 245 272 261 243 133 162 186 266 248 274 311 326 323 228 202 161 354 187 185 171 172 175 175 173 174 177 187 195 191 191 185 186 190 194 203 201 194 191 187 190 189 191 197 356 356
261 265 237 235 252 261 272 249 242 228 258 241 301 137 135 224 246 272 355 353 343 310 176 162 330 336 212 185 188 185 182 178 189 186 188 195 203 201 203 207 201 196 191 194 205 216 210 196 198 205 231 262 299 331
252 272 240 280 214 241 239 227 243 308 31 357 325 162 324 322 261 330 334 340 345 144 164 179 218 280 204 185 177 185 187 187 198 204 192 181 179 178 177 181 180 182 183 182 191 196 191 192 205 213 232 289 300 325
250 247 226 240 223 228 218 236 29 54 256 217 297 319 225 271 308 297 294 308 227 209 231 224 231 223 200 197 188 188 187 190 190 179 180 183 183 184 183 184 183 177 180 184 181 182 183 189 197 226 273 292 327 338
251 204 225 223 189 220 195 151 154 180 248 254 260 258 269 273 311 295 256 263 245 262 267 249 232 203 209 198 188 184 187 186 187 184 198 205 203 199 192 187 185 185 186 191 196 189 187 192 201 233 272 318 331 331
272 227 236 213 235 203 210 205 239 269 278 265 267 262 266 283 281 285 235 242 251 259 242 235 209 198 210 191 188 185 166 169 188 209 212 222 213 204 190 186 189 190 183 180 180 177 175 184 215 267 307 310 311 320
241 227 207 184 259 229 221 242 264 263 267 269 254 296 295 267 263 260 245 224 230 249 258 232 218 214 199 183 188 165 179 180 205 196 225 185 176 183 185 187 181 172 169 168 172 179 185 204 269 284 287 299 311 317
229 168 148 157 262 232 215 278 328 317 276 275 275 297 280 255 260 251 205 243 245 213 171 168 205 202 175 173 173 174 186 220 193 168 147 144 149 163 172 170 169 168 169 172 180 188 204 244 268 283 293 294 297 307
Wind_Speed_850mb
51 44 38 45 43 37 38 40 40 41 42 41 30 27 24 20 17 16 22 16 25 11 21 12 11 10 7 2 3 3 3 3 5 4 5 1 2 4 3 3 9 8 11 8 9 9 12 4 4 7 5 16 22 14
54 49 38 45 48 45 42 38 38 38 38 40 37 33 26 23 19 17 23 22 19 28 15 17 16 11 14 12 5 5 3 4 6 5 0 3 1 2 2 1 4 7 8 7 11 8 4 4 6 21 17 22 15 16
55 53 47 43 45 51 51 44 40 34 36 34 37 34 31 23 17 17 23 19 10 11 21 37 22 12 11 15 32 6 4 7 6 8 4 2 1 0 2 4 1 8 4 3 4 5 6 13 19 14 9 13 16 14
56 56 54 43 40 47 52 47 48 36 38 34 36 31 27 25 21 21 19 16 17 6 5 3 0 5 0 4 18 24 6 12 16 10 6 2 1 6 4 4 3 7 8 10 4 5 6 7 19 17 25 22 19 13
57 60 50 42 47 49 49 48 48 43 36 35 31 31 21 21 21 18 14 14 10 6 2 11 9 11 6 4 16 18 16 19 10 6 3 5 5 2 5 1 7 9 9 6 9 22 14 11 24 30 29 23 16 12
61 56 47 48 50 45 44 50 49 40 38 36 28 28 22 21 18 11 7 12 25 20 3 2 3 6 12 18 19 18 18 15 7 6 2 5 4 5 3 6 12 20 23 25 9 21 16 21 33 32 25 20 17 13
54 48 48 52 48 45 51 54 47 38 32 28 26 24 21 18 22 7 4 6 9 23 3 3 3 5 21 20 16 13 10 7 6 5 5 4 5 13 4 5 10 6 7 13 21 40 22 32 25 28 19 18 17 15
46 46 51 49 48 47 51 47 30 21 24 21 24 18 15 15 22 15 17 17 5 12 6 2 4 6 20 7 7 8 7 7 8 8 6 5 7 8 8 27 35 9 3 16 35 23 27 32 37 25 17 20 21 20
42 48 49 53 57 52 46 37 31 24 25 16 18 19 13 9 10 7 6 4 17 6 5 3 4 5 15 7 7 5 6 3 5 4 5 8 5 9 13 15 23 29 12 22 29 27 40 41 30 22 24 23 21 19
48 50 54 57 52 45 37 35 28 24 20 15 8 5 5 9 10 20 10 13 6 8 5 2 3 4 8 5 5 8 4 2 3 6 7 6 8 39 31 17 11 23 32 36 49 37 40 35 29 30 26 23 18 13
54 53 56 49 41 32 32 28 26 24 16 7 6 4 5 31 19 5 5 4 5 2 7 6 12 5 6 4 3 3 3 2 4 4 5 4 7 9 33 29 20 31 40 30 29 29 32 30 37 37 28 21 18 16
52 53 49 43 34 32 31 19 14 12 5 6 6 10 13 4 4 3 3 4 4 5 9 10 9 5 8 5 4 4 2 4 6 12 5 6 7 8 26 44 36 37 30 27 25 38 35 35 39 35 31 28 24 22
52 49 47 40 36 21 13 10 9 8 6 4 4 5 5 2 3 6 9 4 4 10 16 12 6 7 6 4 3 4 5 5 4 6 5 7 4 29 44 43 34 37 33 38 39 38 39 39 32 28 28 23 19 17
52 48 33 29 21 11 8 8 4 9 4 2 2 4 3 4 5 6 4 4 4 7 31 29 8 5 6 4 2 5 5 3 6 6 9 4 23 40 49 44 43 47 40 45 42 41 40 36 31 25 20 18 13 11
41 27 42 20 16 5 3 9 4 12 6 3 1 3 7 7 9 4 7 10 7 28 34 17 9 6 2 4 4 2 5 7 8 5 3 20 43 47 47 52 50 52 49 46 43 41 37 33 29 26 20 17 12 10
27 26 34 27 15 0 9 19 13 8 6 4 4 5 7 8 4 6 10 11 21 31 19 10 4 4 5 5 8 11 6 7 5 2 14 46 56 55 56 42 53 48 46 44 39 36 34 30 26 24 22 18 16 6
18 18 32 21 16 10 7 9 2 3 5 6 4 12 14 9 10 5 6 15 27 20 3 4 7 8 5 6 8 7 6 4 5 12 37 58 56 59 47 51 49 47 44 40 36 31 32 29 24 22 21 20 11 11
20 14 15 6 2 7 1 1 5 4 5 7 6 11 7 11 7 3 5 23 21 12 10 3 2 4 5 5 4 3 6 5 15 31 44 55 52 47 44 45 41 45 42 37 30 28 27 28 23 16 17 17 12 13
23 7 4 5 5 6 8 5 3 5 6 12 14 12 6 6 4 4 6 20 7 8 3 4 5 4 4 3 6 11 13 18 36 40 42 43 53 52 45 35 37 46 41 36 30 24 21 20 16 14 14 14 11 13
12 4 5 5 4 4 5 4 5 5 6 8 12 12 9 5 4 8 12 17 8 5 5 4 5 4 7 23 19 6 27 40 46 46 43 42 49 39 37 44 46 43 40 35 28 23 25 26 19 14 11 9 6 9
3 4 2 4 4 6 5 5 5 6 9 9 15 11 2 1 3 6 8 14 7 5 5 14 17 8 15 6 1 19 45 39 50 58 59 45 38 41 42 41 40 38 36 31 26 23 18 15 16 14 13 11 6 8
4 7 2 7 4 4 7 7 7 10 6 8 11 6 5 2 4 5 8 11 7 12 11 8 6 6 6 11 9 23 38 42 38 41 43 41 51 49 44 41 37 33 29 25 18 22 20 16 12 13 10 11 6 6
4 2 3 5 5 5 8 6 6 4 3 4 5 4 3 2 2 6 4 7 10 13 14 12 6 12 5 8 12 26 37 39 34 38 40 44 45 41 35 33 30 32 33 27 21 17 16 15 12 9 9 7 3 3
4 3 4 5 8 5 6 5 4 5 6 3 2 4 5 5 5 2 5 6 9 14 13 12 12 13 11 16 28 28 31 32 40 39 40 40 39 35 31 30 28 29 25 25 24 19 15 12 11 10 7 3 1 4
4 5 5 6 6 6 4 2 2 1 4 1 3 4 5 7 1 3 4 7 13 14 5 12 13 9 17 27 31 31 31 32 39 38 39 39 37 32 31 34 37 30 25 24 27 23 17 14 12 11 8 3 2 4
5 5 8 5 4 4 2 2 3 4 4 4 4 3 5 1 3 3 3 9 14 10 7 15 10 3 15 25 37 39 37 33 31 37 37 35 32 30 29 34 33 37 33 25 13 20 18 16 14 11 7 3 2 6
5 7 9 10 6 3 3 7 8 4 6 4 1 2 1 2 5 3 5 10 13 5 10 11 5 6 13 21 34 43 38 37 36 35 33 29 26 27 20 25 30 22 31 27 18 9 8 13 13 9 5 4 4 6
9 7 5 3 5 8 4 2 5 2 4 9 8 0 4 2 4 7 6 5 7 5 17 28 20 8 16 23 32 33 34 38 37 34 28 29 28 23 18 15 18 16 20 18 12 8 6 5 7 7 5 4 5 5
8 9 7 7 10 7 6 2 5 4 3 4 2 1 4 4 11 13 9 6 5 7 14 16 17 12 26 34 35 34 32 34 37 39 40 41 36 30 27 24 23 22 19 18 17 10 7 7 6 4 4 4 4 7
10 14 7 7 5 5 5 2 7 7 5 6 5 5 8 14 16 11 12 10 8 7 10 15 26 32 28 42 39 40 38 37 30 17 31 37 36 33 33 31 27 19 16 17 18 20 18 12 8 5 4 4 6 8
9 7 6 5 3 4 7 8 8 10 11 10 14 16 14 9 10 10 14 13 12 12 15 16 27 31 27 45 46 47 40 28 24 16 12 13 26 30 33 29 21 15 15 16 16 16 14 10 6 3 5 6 7 7
6 7 6 4 5 4 5 5 5 6 6 6 6 5 11 8 7 7 10 15 15 17 20 26 26 27 40 49 39 35 27 28 21 19 11 13 21 27 28 24 20 19 18 19 17 15 12 6 4 5 6 6 7 7
3 4 5 3 4 4 4 4 5 7 5 6 8 8 7 5 7 5 7 8 13 14 10 9 21 27 39 45 43 37 26 19 22 20 22 22 22 22 24 24 23 20 18 15 13 11 8 5 5 6 6 7 7 7
Wind_Direction_850mb
321 319 315 316 317 314 310 316 322 329 330 324 300 306 301 295 304 283 278 269 252 250 281 260 244 262 262 249 141 172 89 352 57 125 205 156 170 355 354 79 155 160 168 173 201 202 247 116 113 172 192 128 154 140
326 321 312 315 317 315 307 306 308 316 322 322 310 296 289 294 282 297 276 271 250 240 260 285 286 239 247 260 214 176 141 117 154 95 226 94 180 319 1 201 91 198 182 176 184 211 242 31 120 125 129 136 151 146
323 322 312 305 316 317 309 301 299 302 312 318 311 303 299 288 285 283 292 280 245 271 269 261 282 240 239 242 221 180 181 157 144 107 120 119 24 17 225 237 268 217 244 238 118 168 130 108 88 97 129 149 134 123
322 318 318 308 311 314 316 308 294 292 303 314 309 301 296 285 270 271 274 294 203 269 271 266 117 115 170 285 195 195 181 163 134 101 80 84 242 185 269 262 288 218 172 182 141 124 147 200 172 188 172 147 136 123
325 322 317 316 315 316 315 313 300 287 284 302 303 298 292 278 273 281 264 267 258 226 273 306 312 357 216 112 153 192 186 150 123 101 118 194 240 197 301 16 237 196 188 157 218 205 170 186 188 179 160 149 142 134
321 318 318 317 316 316 312 314 310 292 274 287 295 293 274 278 260 232 268 238 228 211 288 288 334 338 156 163 153 152 152 155 128 128 184 249 246 131 254 259 253 232 235 238 229 188 143 147 159 165 157 154 155 135
321 322 322 316 316 308 313 309 307 288 272 285 296 282 271 266 247 245 236 353 214 196 223 282 304 179 174 151 146 153 159 135 125 129 200 242 268 178 243 245 268 259 254 234 219 160 120 150 152 154 151 152 158 141
318 320 317 320 318 315 308 317 314 287 293 284 290 279 269 267 258 251 239 273 270 169 183 226 264 176 174 131 113 140 125 189 200 192 168 229 182 208 249 236 242 224 194 159 161 176 176 156 146 144 152 154 147 143
318 317 319 317 316 309 308 313 320 276 290 288 287 273 268 220 208 197 235 275 204 186 199 211 199 205 165 100 107 111 135 159 193 219 233 178 221 223 226 226 234 228 200 162 162 163 152 147 142 146 151 152 144 133
317 318 318 317 315 312 308 308 327 291 291 291 260 197 207 170 174 164 128 169 189 213 215 249 197 143 163 123 132 141 124 211 229 217 192 208 251 241 244 251 238 202 188 167 137 135 147 144 146 146 145 141 137 129
326 322 319 319 316 312 315 305 294 274 282 205 203 223 156 155 151 130 111 167 167 236 211 197 197 139 110 127 122 210 140 265 244 185 217 241 262 250 229 194 155 160 161 166 185 171 164 155 149 146 139 131 120 110
326 325 325 321 311 309 313 304 256 294 222 170 169 125 145 157 101 151 173 163 209 233 182 158 178 111 116 116 103 156 245 185 261 148 220 248 254 295 168 168 157 156 162 190 179 152 148 145 143 134 126 122 111 101
328 325 324 320 315 318 321 284 287 198 203 186 186 128 137 140 191 210 184 166 222 182 166 151 118 132 121 119 113 182 228 252 3 217 240 229 191 150 147 142 137 144 172 154 148 145 144 143 143 137 132 128 119 101
331 333 339 324 323 325 288 262 203 151 152 266 159 118 232 185 237 223 188 200 193 159 150 132 111 120 109 128 136 231 218 285 249 232 228 196 153 147 147 145 159 154 153 145 145 146 143 140 140 149 149 144 145 109
338 3 19 6 347 6 118 182 188 187 326 326 256 226 217 251 264 266 298 147 102 149 142 108 89 101 121 176 199 285 243 236 238 241 188 149 147 146 148 153 154 152 147 144 146 144 139 137 134 130 136 162 172 148
351 11 27 19 359 54 130 132 171 232 305 292 277 292 294 263 291 205 169 130 145 146 120 109 122 173 181 204 205 213 230 239 272 248 160 148 146 151 151 161 157 153 150 147 148 146 145 143 139 129 125 140 150 121
342 347 15 41 26 65 168 128 85 310 298 293 288 288 287 275 237 351 152 155 160 144 138 140 194 211 148 213 213 213 226 250 222 167 159 159 157 156 160 157 156 155 151 148 146 145 154 157 152 140 131 139 130 76
311 321 2 39 46 338 305 322 358 316 281 272 285 303 266 296 293 271 184 169 164 168 156 236 287 211 236 240 223 293 336 65 138 153 150 145 157 152 158 146 156 158 153 150 145 141 146 164 165 146 135 142 120 74
309 278 318 350 330 320 342 337 358 306 283 300 290 307 311 319 253 259 166 160 168 166 192 242 251 242 251 1 272 311 168 140 129 131 147 166 156 158 153 164 163 156 154 151 146 139 135 153 153 139 138 150 122 80
329 289 232 279 269 335 320 301 308 287 280 304 303 323 313 318 163 160 163 174 187 184 224 242 237 283 290 285 287 239 153 141 132 125 137 161 157 149 163 157 156 155 154 154 154 151 149 153 152 149 141 145 109 81
45 33 259 242 289 275 278 292 284 265 290 292 302 324 323 183 183 187 187 191 215 233 234 246 259 297 330 321 153 167 160 163 156 150 148 148 166 169 158 158 157 159 162 165 164 161 163 158 152 156 161 154 120 75
55 40 207 224 299 268 275 252 252 295 264 278 308 304 278 273 238 218 180 195 242 240 234 272 289 263 204 66 140 176 178 173 165 164 163 165 162 161 163 164 166 168 169 169 172 172 167 156 150 159 169 153 132 78
56 233 251 207 270 256 271 242 258 245 258 299 309 307 291 291 357 150 261 238 259 270 262 251 240 151 210 347 148 165 175 177 170 165 169 168 165 164 164 169 178 180 173 170 172 168 161 150 153 166 161 145 112 37
206 261 244 233 219 272 270 246 250 280 288 260 276 294 338 6 157 252 262 255 270 293 273 233 215 183 195 173 160 163 168 169 163 162 165 164 163 164 169 174 181 185 183 173 171 178 169 154 160 170 163 168 176 336
276 228 235 261 231 249 266 230 325 337 259 226 266 225 183 190 210 242 238 278 334 327 286 191 180 186 186 167 164 164 167 172 168 164 162 167 168 174 179 184 187 203 204 189 182 187 178 173 171 173 168 165 14 0
266 222 202 239 239 210 241 245 230 245 272 261 243 133 162 186 266 248 274 311 326 323 228 202 161 354 187 185 171 172 175 175 173 174 177 187 195 191 191 185 186 190 194 203 201 194 191 187 190 189 191 197 356 356
261 265 237 235 252 261 272 249 242 228 258 241 301 137 135 224 246 272 355 353 343 310 176 162 330 336 212 185 188 185 182 178 189 186 188 195 203 201 203 207 201 196 191 194 205 216 210 196 198 205 231 262 299 331
252 272 240 280 214 241 239 227 243 308 31 357 325 162 324 322 261 330 334 340 345 144 164 179 218 280 204 185 177 185 187 187 198 204 192 181 179 178 177 181 180 182 183 182 191 196 191 192 205 213 232 289 300 325
250 247 226 240 223 228 218 236 29 54 256 217 297 319 225 271 308 297 294 308 227 209 231 224 231 223 200 197 188 188 187 190 190 179 180 183 183 184 183 184 183 177 180 184 181 182 183 189 197 226 273 292 327 338
251 204 225 223 189 220 195 151 154 180 248 254 260 258 269 273 311 295 256 263 245 262 267 249 232 203 209 198 188 184 187 186 187 184 198 205 203 199 192 187 185 185 186 191 196 189 187 192 201 233 272 318 331 331
272 227 236 213 235 203 210 205 239 269 278 265 267 262 266 283 281 285 235 242 251 259 242 235 209 198 210 191 188 185 166 169 188 209 212 222 213 204 190 186 189 190 183 180 180 177 175 184 215 267 307 310 311 320
241 227 207 184 259 229 221 242 264 263 267 269 254 296 295 267 263 260 245 224 230 249 258 232 218 214 199 183 188 165 179 180 205 196 225 185 176 183 185 187 181 172 169 168 172 179 185 204 269 284 287 299 311 317
229 168 148 157 262 232 215 278 328 317 276 275 275 297 280 255 260 251 205 243 245 213 171 168 205 202 175 173 173 174 186 220 193 168 147 144 149 163 172 170 169 168 169 172 180 188 204 244 268 283 293 294 297 307